{"data":{"norad_id":61954,"intl_designator":"2024-209R","name":"STARLINK-32574","alt_names":[],"object_type":"PAYLOAD","status":"ACTIVE","operator":null,"country":"US","launch_date":"2024-11-14","launch_site_code":"AFWTR","launch_vehicle":null,"mission":null,"orbit_class":"UNKNOWN","rcs_meters":null,"size_class":null,"mass_kg":null,"dimensions":null,"purposes":["comms"],"wikipedia_slug":null,"has_3d_model":false,"image_url":null,"decayed_at":null,"tle_current":{"epoch":"2026-09-21T09:13:05.419200Z","epoch_age_seconds":109260,"freshness":"FRESH","line1":"1 61954U 24209R   26264.38409050  .00022796  00000+0  68361-3 0  9993","line2":"2 61954  53.1605 303.8199 0001322 112.0231 248.0912 15.34406505105014","mean_motion":15.34406505,"eccentricity":0.0001322,"inclination_deg":53.1605,"raan_deg":303.8199,"arg_perigee_deg":112.0231,"mean_anomaly_deg":248.0912,"bstar":0.00068361,"rev_number":10501,"period_min":93.847360220882,"perigee_km":461.77954952076,"apogee_km":463.58826256832,"semimajor_km":6840.8209060445,"source":"CELESTRAK","updated_at":"2026-09-22T09:00:49.456641Z"}}}